User: anonymous   Login
Location: Wayah Bald
(35.1806°N, 83.5603°W)
Time: 15:15:36
(UTC-04:00)
Language:

Meteor 1-27 Rocket - Orbit

View from above orbital plane
View from above orbital plane
View from above satellite
View from above satellite

Ground track
Ground track

The orbit data is extracted from the following two-line orbital elements,

1 09904U 77024B   16205.24616871  .00000020  00000-0  42452-5 0  9995
2 09904  81.2621  87.6922 0054969 172.6457 187.5532 14.06827127 16559
Epoch (UTC): 23 July 2016 05:54:28
Eccentricity: 0.0054969
inclination: 81.2621°
perigee height: 830 km
apogee height: 910 km
right ascension of ascending node: 87.6922°
argument of perigee: 172.6457°
revolutions per day: 14.06827127
mean anomaly at epoch: 187.5532°
orbit number at epoch: 1655

The dashed part of the orbit path shows where the satellite is in the earth's shadow,  

DLR